Temperature
20 20 20 20 20 20 19 19 19 19 19 19 19 19 18 18 18 18 18 18 18 18 18 17 17 17 17 17 17 17 17 16 16 16 15 15 15 14 14 14 14 14 14
21 20 20 20 20 20 19 19 19 19 19 19 19 19 19 18 18 18 18 17 17 17 17 17 17 17 17 17 17 17 16 16 16 16 15 15 14 14 14 14 14 14 14
21 20 20 20 20 20 19 20 19 19 19 19 19 19 18 18 18 18 18 17 17 17 17 17 17 17 17 16 16 16 16 16 16 15 15 15 14 14 14 14 13 13 13
21 20 20 20 20 20 20 19 19 19 19 19 19 18 18 18 18 18 18 17 17 17 17 17 17 17 16 16 16 16 16 16 16 15 15 14 14 14 13 13 13 13 13
21 20 20 20 20 20 20 19 19 19 19 19 19 18 18 18 18 18 18 17 17 17 17 17 16 16 16 16 16 16 15 15 15 15 14 14 14 13 13 13 13 13 13
21 20 20 19 19 19 19 19 19 19 19 18 18 18 18 18 18 18 18 17 17 17 17 17 16 16 16 16 16 15 15 15 15 14 14 14 14 14 13 13 13 12 12
20 20 19 19 19 19 19 19 19 19 19 18 18 18 18 18 18 18 18 17 17 17 16 16 16 16 16 16 16 15 15 15 15 14 14 14 14 14 13 13 13 13 13
20 20 19 19 19 18 18 18 18 18 18 18 18 18 18 18 18 18 18 17 17 17 16 16 16 16 16 16 15 15 15 15 15 14 14 14 14 13 13 13 13 12 12
19 19 19 19 19 18 18 18 18 18 18 18 18 18 18 18 18 18 17 17 17 17 16 16 16 16 16 15 15 15 15 15 14 14 14 14 14 13 13 12 12 12 12
19 19 19 19 18 18 18 18 18 18 17 17 18 18 18 18 18 17 17 17 17 16 16 16 16 16 16 15 15 15 14 14 14 14 14 14 13 13 13 13 12 12 12
19 18 18 18 18 18 17 17 17 17 17 17 17 17 17 17 17 17 17 17 17 16 16 16 16 16 15 15 14 14 14 14 13 13 13 13 13 13 13 13 12 12 12
18 18 18 18 17 17 17 17 17 17 17 17 17 17 17 17 17 17 17 16 16 16 16 15 15 15 15 15 14 14 14 13 13 13 13 12 12 13 13 12 12 12 12
17 17 17 17 17 17 17 17 16 16 16 16 16 16 16 16 16 16 16 16 16 15 15 15 15 15 14 14 14 14 13 13 13 13 12 12 12 12 12 12 12 11 11
17 17 17 16 16 16 16 16 16 16 16 16 16 16 16 16 16 16 16 15 15 15 15 14 14 14 14 14 13 13 13 13 13 12 13 12 12 12 12 12 11 11 11
16 16 16 16 16 16 16 16 16 16 16 16 16 16 15 15 16 15 15 15 15 15 14 14 14 13 13 13 13 13 13 13 12 12 12 12 12 11 11 11 11 11 11
16 15 15 15 15 15 15 15 15 15 15 16 16 16 15 15 15 15 15 15 15 14 14 13 13 13 13 13 12 12 12 12 12 12 12 12 12 11 11 11 11 11 10
15 15 15 15 15 15 15 15 15 15 15 15 15 15 15 15 15 15 15 14 14 14 13 13 13 13 12 12 12 12 12 12 12 12 12 12 11 11 11 11 11 10 10
15 15 15 15 15 15 15 15 15 15 15 15 14 14 14 14 14 14 14 13 13 13 13 13 13 12 12 12 12 12 12 12 12 11 11 11 11 11 11 10 10 10 10
14 15 15 15 14 14 14 14 14 14 14 14 14 14 14 14 13 13 13 13 13 13 13 12 12 12 12 12 12 12 12 11 11 11 11 11 11 11 11 10 10 10 10
14 14 14 14 14 14 14 14 14 14 14 14 14 14 14 13 13 13 13 13 12 12 12 12 12 12 12 12 11 11 11 11 11 11 11 11 11 10 10 10 10 10 10
14 14 14 14 14 14 14 14 14 14 13 13 13 13 13 13 13 13 12 12 12 12 12 12 12 11 11 11 11 11 11 11 11 11 11 10 10 10 10 10 10 10 10
13 14 14 14 14 13 13 13 13 13 13 13 13 13 13 13 13 12 12 12 12 12 12 11 11 11 11 10 10 10 10 10 10 10 10 10 10 10 10 10 10 9 9
13 14 14 14 13 13 13 13 13 13 13 13 13 13 12 12 12 12 12 12 12 11 11 11 11 11 10 10 10 10 10 10 10 10 10 9 9 9 9 9 9 9 9
13 13 13 13 13 13 13 13 13 13 13 13 12 12 12 12 12 12 12 12 11 11 11 11 10 10 10 10 10 10 10 10 9 9 9 9 9 9 9 9 9 9 9
12 13 13 13 13 13 13 12 12 12 12 12 12 12 12 12 11 11 11 11 11 11 11 10 10 10 10 10 10 9 9 9 9 9 9 9 9 8 8 8 8 8 8
12 12 12 12 12 12 12 12 12 12 12 12 11 11 11 11 11 11 11 11 11 10 10 10 10 10 10 9 9 9 9 9 9 9 8 8 8 8 8 8 8 8 8
Wind_Speed
8 7 6 6 6 5 4 4 4 4 3 4 4 4 4 4 3 3 4 4 4 3 3 3 3 2 1 1 2 2 2 2 2 1 2 3 3 3 4 6 8 9 8
8 7 6 6 6 6 6 5 5 5 5 5 5 4 5 5 4 4 5 4 4 4 3 3 3 2 2 2 2 2 1 2 3 3 2 3 3 4 4 4 6 7 8
9 8 7 6 6 6 5 5 5 5 5 5 5 5 5 4 5 4 4 4 3 3 3 3 2 2 2 2 2 2 2 2 2 3 3 3 2 3 4 4 4 4 6
8 8 7 6 5 5 5 4 4 4 4 4 4 4 4 3 4 4 4 3 3 3 2 2 2 2 2 2 3 2 2 1 2 3 3 3 3 3 3 3 3 3 4
7 8 7 6 5 5 5 5 5 5 6 5 5 4 4 4 4 3 3 4 3 2 2 2 2 2 2 1 2 1 2 2 2 3 4 3 3 3 4 4 4 3 4
5 6 5 5 5 5 5 5 5 5 5 4 5 5 5 5 3 3 3 3 3 3 3 2 3 3 3 2 2 2 2 3 3 3 3 4 5 5 5 5 4 3 3
4 4 4 5 5 5 6 5 5 5 5 5 5 5 5 3 5 5 4 3 4 3 3 3 4 3 5 3 3 4 3 3 4 4 4 4 4 5 5 5 4 5 4
4 4 4 5 5 5 5 5 5 5 5 5 6 6 5 5 7 6 6 5 4 4 4 4 3 3 3 3 4 4 4 3 4 4 4 4 3 3 4 5 5 4 3
4 4 4 5 5 5 5 5 4 4 5 5 5 6 6 5 8 8 7 5 5 5 5 4 5 4 4 5 4 5 4 4 3 4 4 4 4 5 4 2 3 3 4
2 2 3 3 4 4 5 5 4 4 4 4 5 5 6 5 9 10 9 5 5 4 4 4 5 5 5 6 5 5 5 5 4 3 3 5 5 7 8 6 4 4 4
1 1 1 2 3 4 4 4 4 4 5 5 5 5 5 6 8 10 10 6 5 4 4 4 3 6 7 7 7 6 6 4 3 4 4 5 5 5 6 7 6 5 5
0 1 1 1 3 4 3 4 4 5 6 6 6 6 5 5 6 9 10 10 7 4 4 3 3 7 7 8 6 6 6 5 4 4 4 5 5 5 5 6 7 6 5
0 1 1 1 2 2 4 4 5 5 6 5 5 5 5 4 5 8 9 10 9 6 4 4 4 6 6 6 8 8 6 5 5 5 5 5 4 5 5 4 5 5 6
1 2 2 2 2 2 3 4 4 4 5 5 5 5 5 4 3 3 5 5 6 7 5 3 5 6 6 6 6 6 5 5 5 5 4 4 3 3 3 4 4 4 4
2 3 3 3 3 3 3 3 4 4 5 5 5 4 4 5 4 5 4 4 5 5 4 3 3 4 4 5 5 5 6 5 6 5 4 4 3 4 4 4 4 4 5
3 3 3 3 3 4 4 3 3 4 4 5 6 6 5 5 5 5 5 5 6 5 4 5 5 6 6 6 6 5 6 5 5 5 5 4 4 4 4 3 4 5 5
3 3 4 4 4 4 4 4 4 3 3 4 5 5 5 5 4 6 6 5 6 6 5 6 6 6 6 6 6 6 6 5 5 5 5 4 4 4 4 4 4 5 5
4 4 4 3 3 4 4 4 4 3 2 2 3 4 5 5 5 5 4 3 3 5 6 7 6 5 5 5 5 5 4 5 5 5 5 4 4 4 5 5 5 5 5
3 3 3 2 3 3 3 3 3 3 3 3 2 2 3 4 4 4 5 4 6 6 6 6 5 5 4 4 4 4 4 4 4 4 5 5 5 5 5 5 5 7 6
3 3 3 3 3 3 3 3 3 3 3 3 3 2 2 2 2 3 4 6 6 5 5 5 4 4 4 4 4 4 4 4 4 4 4 4 5 5 6 6 6 5 5
4 3 4 4 4 4 3 3 3 4 4 3 3 3 5 4 4 5 5 5 5 5 5 4 3 3 3 3 3 4 4 3 3 3 3 4 4 4 5 5 5 6 5
4 4 3 3 3 3 3 3 4 4 4 4 3 3 6 5 4 5 5 4 4 4 4 3 3 3 3 3 3 3 4 3 3 3 3 3 3 4 4 5 5 5 5
5 4 3 2 3 3 3 4 4 4 4 4 3 1 2 3 3 3 3 3 3 3 3 3 3 3 3 3 3 3 3 3 3 3 2 3 4 4 5 5 6 5 5
6 5 4 3 3 3 3 3 3 4 3 3 2 2 2 2 3 3 3 2 2 2 2 2 3 4 4 3 2 2 2 2 3 2 3 5 5 5 5 5 5 6 6
6 5 5 4 4 4 3 3 2 2 2 2 2 2 2 1 2 1 1 1 2 2 2 2 2 2 3 3 2 1 1 1 2 3 4 5 6 6 6 6 5 5 5
5 5 4 4 3 3 3 3 3 2 2 2 2 2 2 1 1 1 1 1 2 2 2 1 1 1 2 2 1 3 3 2 2 4 6 5 5 5 5 5 6 5 5
Wind_Direction
179 186 182 183 191 197 202 192 187 190 182 187 196 191 192 199 205 211 219 206 206 212 216 203 212 243 239 241 220 222 207 181 196 191 147 147 151 155 157 171 173 173 177
181 182 183 184 189 197 198 191 188 188 192 196 196 203 208 205 207 214 228 224 211 213 220 211 219 212 208 249 256 245 218 191 189 186 178 172 179 180 180 196 189 193 183
180 183 184 192 192 197 195 189 191 193 199 200 199 207 215 210 206 213 221 234 221 211 209 213 219 205 214 231 240 237 234 207 181 190 195 178 182 187 195 215 211 202 199
178 182 182 189 189 191 193 190 191 192 197 206 207 211 216 212 210 212 215 221 221 214 196 200 205 206 215 236 231 228 230 212 190 191 196 186 185 197 198 213 221 218 220
177 183 184 187 189 190 191 191 192 199 204 199 205 213 215 219 224 219 229 215 209 208 193 196 185 173 178 217 234 226 213 216 209 203 202 191 197 197 216 224 227 224 225
170 180 175 182 190 196 196 193 192 203 209 202 206 215 220 222 186 189 223 224 207 215 212 208 194 167 168 169 162 157 192 216 222 216 210 209 213 209 217 226 225 224 234
171 177 174 186 200 206 210 201 200 206 209 211 219 219 219 198 191 189 200 221 213 217 223 226 233 212 189 191 199 201 213 231 231 234 235 231 218 207 211 222 225 228 238
179 189 190 191 204 208 215 213 212 211 213 216 223 224 221 213 199 196 202 224 226 219 221 219 221 219 214 209 220 217 222 233 235 234 244 251 234 215 216 223 232 240 250
192 199 198 197 202 205 215 220 222 220 220 222 226 225 226 214 199 197 202 227 231 226 223 220 215 215 206 210 218 225 226 228 229 222 219 217 218 212 216 237 229 234 247
219 218 202 195 205 216 224 225 227 225 229 234 237 233 230 217 200 199 200 224 230 228 224 220 211 204 193 205 220 227 231 231 219 212 217 224 220 215 213 219 225 233 248
290 252 222 205 212 220 222 220 225 229 230 234 238 240 232 214 198 198 197 216 232 232 231 230 210 191 201 214 227 234 234 237 230 222 219 219 218 211 210 216 222 224 239
210 241 239 232 243 238 215 216 221 230 235 238 237 242 236 214 198 203 204 214 231 238 242 235 208 199 205 215 225 231 226 231 238 232 231 226 219 214 213 212 218 224 231
187 218 225 219 234 236 226 227 231 232 237 237 235 239 236 216 198 196 206 218 226 233 251 244 227 207 209 218 225 222 216 220 227 230 231 230 221 210 206 202 207 225 239
230 225 222 219 238 257 251 240 239 240 240 242 240 237 235 227 211 198 203 216 223 230 243 250 218 210 220 225 217 217 219 225 228 234 234 237 225 214 217 208 212 217 235
263 253 240 237 236 238 245 253 251 248 237 238 248 243 240 239 228 206 210 216 218 217 210 221 224 214 217 219 217 215 218 219 227 235 234 229 224 222 224 216 214 220 227
270 261 253 251 245 238 232 244 264 245 240 236 243 236 234 228 220 208 210 215 216 196 200 226 225 222 223 226 225 223 222 222 224 229 233 233 233 232 230 227 223 229 238
273 270 266 264 258 251 244 240 247 250 244 242 241 234 228 231 226 211 206 212 213 191 214 231 235 231 228 230 229 228 227 222 219 225 229 233 233 235 237 237 234 236 241
274 276 269 265 269 263 260 261 258 254 256 259 242 215 207 216 225 223 198 181 223 214 230 235 237 238 237 233 231 233 228 220 221 227 227 227 229 234 240 240 236 238 242
293 289 290 288 283 273 263 262 265 264 257 252 254 215 200 209 215 214 183 218 241 241 241 245 245 243 246 248 245 240 232 228 224 223 226 227 230 235 238 237 237 240 238
294 283 275 275 273 270 269 265 260 254 254 246 245 227 172 168 204 210 215 233 245 246 250 251 252 254 249 252 251 250 248 245 236 229 231 231 232 236 242 243 239 235 235
296 287 272 272 269 268 269 269 265 261 261 258 247 219 185 205 215 221 229 233 242 247 247 252 251 254 255 254 253 255 259 259 250 248 248 244 246 248 249 248 245 240 239
289 285 284 285 290 292 288 279 273 267 261 260 250 226 203 224 232 231 231 234 240 251 260 263 263 257 261 261 258 254 258 264 261 257 257 254 254 261 262 258 259 256 249
292 284 277 292 301 300 292 292 287 282 278 277 278 249 217 242 251 249 246 241 237 242 250 258 262 268 269 265 258 252 255 258 258 255 260 265 263 262 263 262 261 264 253
301 301 297 294 288 279 282 290 295 294 296 298 289 274 251 250 260 262 261 259 262 256 247 245 252 258 264 265 269 263 280 297 292 279 261 260 260 260 258 256 256 258 256
306 312 315 314 317 312 308 308 310 311 313 313 311 297 291 278 277 291 306 289 283 281 274 265 263 263 274 279 280 285 302 325 319 308 289 266 260 262 264 261 257 255 252
318 320 326 331 334 332 326 324 328 330 325 320 317 308 313 323 321 315 313 308 302 303 304 299 290 300 313 321 0 46 38 4 322 293 278 269 262 263 271 269 265 258 255
Height
1521 1522 1524 1526 1527 1529 1530 1531 1532 1533 1533 1534 1534 1535 1535 1536 1536 1536 1536 1537 1537 1537 1537 1538 1538 1539 1540 1540 1541 1541 1542 1542 1542 1542 1543 1544 1544 1544 1544 1544 1544 1544 1544
1519 1520 1522 1524 1525 1527 1528 1528 1529 1530 1531 1531 1532 1532 1533 1534 1534 1534 1535 1535 1535 1536 1536 1536 1536 1537 1537 1538 1538 1539 1539 1539 1539 1539 1540 1540 1541 1541 1542 1542 1542 1542 1542
1517 1518 1520 1521 1523 1524 1525 1526 1527 1528 1529 1529 1530 1530 1531 1531 1531 1532 1532 1533 1533 1533 1534 1534 1534 1534 1535 1535 1536 1536 1537 1537 1537 1537 1537 1538 1538 1538 1539 1539 1539 1539 1539
1514 1516 1517 1518 1520 1521 1522 1523 1524 1525 1526 1527 1527 1528 1528 1528 1529 1529 1529 1530 1530 1531 1531 1532 1532 1532 1532 1532 1533 1533 1534 1534 1534 1534 1534 1534 1534 1535 1535 1536 1536 1536 1536
1511 1513 1515 1516 1517 1518 1519 1520 1521 1522 1523 1524 1524 1525 1525 1526 1526 1527 1527 1527 1528 1528 1528 1529 1529 1529 1529 1529 1530 1530 1530 1530 1530 1531 1531 1531 1531 1531 1532 1532 1532 1533 1533
1509 1511 1512 1514 1515 1516 1517 1518 1518 1519 1520 1521 1521 1522 1523 1523 1523 1524 1525 1525 1525 1525 1525 1526 1526 1526 1526 1526 1526 1526 1527 1527 1527 1527 1527 1527 1527 1528 1528 1529 1529 1529 1529
1507 1508 1510 1511 1512 1513 1514 1515 1515 1516 1516 1517 1518 1518 1519 1519 1520 1520 1521 1521 1521 1522 1522 1522 1523 1522 1523 1523 1523 1523 1523 1523 1524 1524 1524 1524 1524 1524 1525 1525 1525 1525 1525
1504 1505 1507 1507 1509 1510 1511 1511 1512 1512 1513 1513 1514 1515 1515 1516 1516 1517 1517 1518 1518 1518 1518 1519 1519 1519 1519 1519 1519 1519 1519 1519 1520 1520 1521 1521 1521 1521 1521 1522 1522 1522 1522
1502 1503 1504 1505 1505 1506 1507 1507 1508 1509 1509 1510 1510 1511 1512 1512 1512 1513 1513 1514 1513 1514 1514 1515 1515 1515 1515 1515 1515 1515 1515 1515 1515 1516 1516 1516 1517 1517 1517 1518 1518 1518 1518
1499 1500 1501 1502 1503 1503 1503 1504 1504 1505 1505 1506 1506 1507 1507 1508 1508 1509 1509 1510 1510 1510 1510 1510 1510 1511 1511 1511 1511 1511 1510 1510 1511 1511 1511 1512 1512 1512 1512 1513 1513 1514 1513
1496 1497 1498 1498 1499 1499 1500 1500 1500 1501 1501 1501 1502 1502 1502 1503 1503 1504 1504 1505 1505 1505 1506 1506 1506 1506 1507 1507 1507 1507 1506 1506 1506 1506 1506 1507 1507 1507 1507 1508 1509 1509 1509
1493 1494 1494 1495 1496 1496 1496 1496 1496 1497 1497 1497 1497 1498 1498 1498 1498 1499 1499 1500 1501 1501 1501 1502 1502 1502 1502 1502 1502 1502 1502 1502 1502 1502 1502 1502 1502 1503 1503 1503 1504 1504 1505
1490 1490 1491 1491 1492 1492 1492 1492 1492 1493 1493 1493 1493 1493 1494 1493 1493 1494 1495 1496 1496 1497 1497 1497 1498 1498 1498 1498 1497 1497 1497 1497 1497 1497 1498 1498 1499 1498 1498 1498 1499 1499 1500
1487 1487 1487 1488 1488 1489 1489 1489 1489 1489 1489 1489 1489 1489 1489 1488 1489 1489 1490 1491 1491 1492 1492 1493 1493 1493 1493 1493 1493 1493 1493 1493 1493 1493 1493 1494 1495 1495 1494 1494 1494 1494 1494
1484 1483 1484 1484 1484 1485 1485 1485 1485 1485 1485 1485 1485 1485 1485 1485 1484 1485 1485 1485 1486 1487 1487 1487 1487 1488 1488 1488 1488 1488 1488 1489 1489 1489 1489 1490 1490 1490 1490 1491 1490 1490 1490
1480 1480 1481 1481 1481 1482 1482 1481 1481 1481 1481 1481 1481 1481 1480 1481 1481 1480 1480 1481 1482 1483 1483 1482 1482 1482 1482 1483 1483 1483 1483 1483 1484 1485 1485 1486 1486 1486 1486 1486 1486 1486 1485
1478 1477 1478 1478 1478 1478 1478 1478 1477 1477 1476 1476 1476 1476 1476 1476 1476 1476 1476 1477 1477 1478 1477 1477 1477 1477 1478 1478 1478 1478 1479 1479 1480 1480 1481 1481 1482 1482 1482 1481 1481 1481 1481
1476 1475 1475 1475 1475 1475 1474 1474 1473 1473 1472 1471 1471 1471 1471 1471 1471 1472 1472 1473 1472 1473 1473 1473 1473 1473 1474 1474 1474 1474 1474 1475 1475 1476 1476 1476 1477 1477 1477 1476 1476 1476 1476
1473 1472 1472 1471 1471 1471 1470 1470 1469 1469 1468 1467 1467 1466 1466 1467 1467 1467 1468 1468 1468 1469 1468 1468 1469 1469 1469 1469 1469 1469 1470 1470 1470 1471 1471 1471 1471 1471 1471 1471 1471 1471 1471
1470 1470 1469 1469 1468 1468 1467 1467 1466 1465 1464 1464 1463 1463 1462 1463 1463 1463 1464 1464 1465 1464 1464 1464 1464 1465 1464 1465 1465 1465 1465 1465 1466 1466 1466 1466 1466 1466 1466 1466 1466 1466 1465
1469 1468 1467 1466 1465 1465 1464 1463 1462 1462 1461 1460 1460 1460 1460 1459 1459 1460 1460 1460 1460 1460 1460 1460 1459 1459 1459 1459 1459 1460 1460 1460 1460 1460 1460 1460 1460 1460 1461 1461 1461 1460 1460
1467 1465 1464 1463 1462 1461 1460 1459 1459 1459 1458 1458 1457 1457 1457 1457 1457 1457 1457 1456 1456 1456 1456 1456 1455 1455 1454 1454 1454 1454 1454 1455 1455 1455 1455 1455 1455 1455 1455 1455 1455 1455 1455
1464 1463 1462 1460 1460 1458 1457 1456 1456 1456 1455 1455 1455 1454 1454 1454 1454 1453 1453 1453 1452 1452 1452 1452 1451 1450 1450 1450 1450 1450 1450 1450 1450 1450 1450 1449 1449 1450 1450 1450 1450 1450 1449
1461 1460 1459 1458 1457 1456 1455 1454 1453 1453 1453 1452 1452 1451 1451 1451 1451 1450 1450 1449 1449 1449 1448 1447 1447 1446 1446 1446 1446 1445 1445 1445 1445 1445 1444 1444 1444 1444 1444 1444 1444 1444 1444
1459 1458 1457 1455 1454 1453 1453 1452 1451 1451 1450 1450 1449 1449 1448 1448 1447 1447 1446 1446 1446 1445 1444 1444 1443 1442 1442 1442 1441 1441 1440 1440 1440 1439 1439 1439 1439 1438 1439 1438 1438 1438 1438
1457 1456 1454 1453 1452 1451 1450 1449 1449 1448 1448 1448 1447 1447 1446 1445 1444 1444 1444 1443 1442 1441 1441 1440 1439 1438 1437 1437 1436 1436 1435 1434 1434 1434 1434 1433 1433 1433 1433 1433 1432 1432 1432